Flag for Tanzania Weather past 2 weeks in Dar es Salaam, Tanzania

Now
77 °F

Passing clouds.


Feels Like: 78 °F
Forecast: 76 / 87 °F
Wind: No wind

Location: Dar Es Salaam Airport


UV Index: 7 (High)

Visibility: N/A


Pressure: 29.92 "Hg

Humidity: 100%

Dew point: 77 °F

Location of Dar es SalaamLocation

Historic Weather in Dar es Salaam

°F

Dar es Salaam temperature yesterday

Maximum temperature yesterday: 90 °F (at 1:00 PM)
Minimum temperature yesterday: 75 °F (at 7:00 AM)
Average temperature yesterday: 80 °F

Past Weeks' High & Low Weather Summary

 TemperatureHumidityPressure
High90 °F (Apr 15, 2:00 PM)100% (Apr 7, 7:00 AM)30.01 "Hg (Apr 7, 7:00 AM)
Low66 °F (Apr 18, 10:00 AM)55% (Apr 14, 3:00 PM)29.83 "Hg (Apr 15, 3:00 PM)
Average79 °F88%29.93 "Hg
* Reported Apr 7 7:00 AM — Apr 20 11:00 PM, Dar es Salaam, Weather by CustomWeather, © 2014

Note: Actual official high and low records may vary slightly from our data, if they occured in-between our weather recording intervals... More about our weather records

Advertising

Historic Weather Conditions — Data for Previous 24 hours

 ConditionsComfort  
Time TempWeatherWind HumidityBarometerVisibility
11:00 PM
Apr 20
77 °FPassing clouds.No wind100%29.92 "HgN/A
10:00 PM77 °FPassing clouds.No wind100%29.92 "HgN/A
9:00 PM77 °FPassing clouds.No wind100%29.92 "HgN/A
6:00 PM81 °FPartly sunny.7 mph89%29.86 "HgN/A
5:00 PM81 °FBroken clouds.3 mph89%29.86 "HgN/A
4:00 PM81 °FBroken clouds.12 mph89%29.86 "HgN/A
3:00 PM79 °FThunderstorms. Broken clouds.6 mph94%29.86 "HgN/A
2:00 PM82 °FRain showers. Partly sunny.9 mph84%29.86 "Hg5 mi
1:00 PM90 °FPartly sunny.6 mph63%29.89 "HgN/A
12:00 PM88 °FPartly sunny.8 mph70%29.92 "HgN/A
11:00 AM86 °FPartly sunny.8 mph75%29.95 "HgN/A
10:00 AM82 °FPartly sunny.6 mph84%29.98 "HgN/A
9:00 AM81 °FBroken clouds.5 mph94%29.98 "HgN/A
8:00 AM77 °FPassing clouds.3 mph100%29.95 "HgN/A
7:00 AM75 °FPassing clouds.No wind100%29.95 "HgN/A
6:00 AM77 °FPassing clouds.7 mph100%29.92 "HgN/A
3:00 AM77 °FPassing clouds.3 mph100%29.92 "HgN/A
Weather by CustomWeather, © 2014

See weather overview